Location: Unspecified
(42.3650°N, 71.1030°W)
Time: 13:19:06
(UTC+00:00)

Courier 1B - Pass Details

Date: 30 June 2024
Orbit: 962 x 1209 km, 28.3° (Epoch: 25 July)

Event Time Altitude Azimuth Distance (km) Brightness Sun altitude
Rises 07:12:24 0° 252° (WSW) 3,797 - -16.5°
Reaches altitude 10° 07:17:17 10° 222° (SW) 2,905 - -16.0°
Maximum altitude 07:19:36 12° 203° (SSW) 2,806 - -15.8°
Drops below altitude 10° 07:21:57 10° 184° (S) 2,965 - -15.5°
Exits shadow 07:23:59 - 170° (S) 3,282 9.9 -15.3°
Sets 07:27:07 0° 155° (SSE) 3,985 10.4 -14.9°
